Flag for China Weather past 2 weeks in Xiamen, Fujian, China

Now
81 °F

Passing clouds.


Feels Like: 84 °F
Forecast: 78 / 84 °F
Wind: 3 mph from North

Location: Xiamen Airport

Current Time: Sep 21, 2014 at 4:20:26 AM

Latest Report: Sep 21, 2014 at 3:00 AM


Visibility: N/A

Pressure: 29.59 "Hg

Humidity: 70%

Dew point: 70 °F

Location of XiamenLocation

Historic Weather in Xiamen — Graph

°F

Xiamen temperature yesterday

Maximum temperature yesterday: 90 °F (at 2:00 PM)
Minimum temperature yesterday: 82 °F (at 3:00 AM)
Average temperature yesterday: 85 °F

Past Weeks' High & Low Weather Summary

 TemperatureHumidityPressure
High95 °F (Sep 6, 2:00 PM)94% (Sep 8, 5:00 AM)29.95 "Hg (Sep 8, 5:00 AM)
Low81 °F (Sep 6, 4:00 AM)47% (Sep 19, 10:00 AM)29.56 "Hg (Sep 20, 3:00 PM)
Average87 °F75%29.76 "Hg
* Reported Sep 6 3:00 AM — Sep 21 3:00 AM, Xiamen, Weather by CustomWeather, © 2014

Note: Actual official high and low records may vary slightly from our data, if they occured in-between our weather recording intervals... More about our weather records

Advertising

Xiamen weather history for previous 24 hours

 ConditionsComfort  
Time TempWeatherWind HumidityBarometerVisibility
3:00 AM
Sep 21
81 °FPassing clouds.3 mph70%29.59 "HgN/A
2:00 AM81 °FPassing clouds.3 mph70%29.59 "HgN/A
1:00 AM81 °FPassing clouds.8 mph74%29.59 "HgN/A
9:00 PM
Sep 20
82 °FPassing clouds.13 mph66%29.68 "HgN/A
8:00 PM82 °FPassing clouds.13 mph66%29.65 "HgN/A
7:00 PM82 °FPassing clouds.17 mph70%29.59 "HgN/A
6:00 PM84 °FPartly sunny.13 mph66%29.59 "HgN/A
5:00 PM86 °FBroken clouds.13 mph62%29.59 "HgN/A
4:00 PM88 °FBroken clouds.10 mph62%29.56 "HgN/A
3:00 PM88 °FPartly sunny.13 mph62%29.56 "HgN/A
2:00 PM90 °FPartly sunny.13 mph55%29.59 "HgN/A
1:00 PM88 °FOvercast.13 mph59%29.62 "HgN/A
12:00 PM88 °FPartly sunny.15 mph59%29.65 "HgN/A
11:00 AM86 °FMostly cloudy.13 mph66%29.65 "HgN/A
10:00 AM84 °FPartly sunny.10 mph70%29.68 "HgN/A
9:00 AM84 °FPartly sunny.10 mph70%29.65 "HgN/A
8:00 AM84 °FPartly sunny.10 mph70%29.65 "HgN/A
7:00 AM82 °FLight rain. Partly sunny.8 mph74%29.62 "HgN/A
6:00 AM82 °FMostly cloudy.15 mph74%29.62 "HgN/A
5:00 AM84 °FPassing clouds.13 mph66%29.59 "HgN/A
4:00 AM84 °FPassing clouds.10 mph70%29.59 "HgN/A
Weather by CustomWeather, © 2014

See weather overviewHow to use our weather pages